GFSNIL_prec_precacc12_132.txt.gz
Total_Precipitation_Accumulation
0.15 0.15 0.08 0.08 0.09 0.10 0.08 0.05 0.06 0.05 0.09 0.09 0.12 0.13 0.13 0.14 0.11 0.10 0.10 0.05 0.07 0.04
0.06 0.03 0.04 0.04 0.02 0.02 0.02 0.01 0.00 0.01 0.01 0.02 0.04 0.07 0.07 0.07 0.06 0.07 0.06 0.04 0.04 0.05
0.00 0.00 0.00 0.01 0.00 0.00 0.00 0.00 0.00 0.00 0.00 0.00 0.01 0.03 0.05 0.05 0.04 0.04 0.03 0.04 0.02 0.02
0.00 0.00 0.00 0.00 0.00 0.00 0.00 0.00 0.00 0.00 0.01 0.01 0.01 0.02 0.04 0.04 0.04 0.05 0.05 0.05 0.04 0.03
0.00 0.00 0.00 0.00 0.00 0.00 0.00 0.00 0.00 0.00 0.01 0.01 0.01 0.01 0.03 0.04 0.04 0.04 0.05 0.05 0.05 0.05
0.00 0.00 0.00 0.00 0.00 0.00 0.00 0.01 0.00 0.01 0.01 0.01 0.01 0.02 0.01 0.02 0.03 0.04 0.04 0.03 0.04 0.04
0.00 0.00 0.00 0.00 0.00 0.01 0.01 0.01 0.01 0.01 0.02 0.03 0.03 0.02 0.03 0.03 0.03 0.04 0.04 0.04 0.04 0.04
0.00 0.00 0.00 0.00 0.00 0.00 0.01 0.01 0.01 0.01 0.03 0.04 0.04 0.05 0.04 0.04 0.04 0.04 0.04 0.04 0.05 0.05
0.00 0.00 0.00 0.00 0.00 0.00 0.00 0.00 0.01 0.02 0.03 0.07 0.06 0.08 0.07 0.05 0.05 0.05 0.05 0.04 0.04 0.04
0.00 0.00 0.00 0.00 0.00 0.00 0.00 0.01 0.01 0.03 0.03 0.04 0.06 0.09 0.04 0.05 0.06 0.07 0.06 0.06 0.06 0.06
0.00 0.00 0.00 0.00 0.00 0.01 0.01 0.02 0.02 0.04 0.07 0.05 0.05 0.12 0.09 0.09 0.06 0.05 0.07 0.07 0.06 0.07
0.00 0.00 0.00 0.00 0.01 0.02 0.03 0.02 0.04 0.07 0.09 0.09 0.07 0.09 0.09 0.14 0.08 0.11 0.09 0.05 0.06 0.09
0.00 0.00 0.00 0.01 0.02 0.02 0.05 0.06 0.06 0.14 0.17 0.22 0.13 0.16 0.13 0.13 0.11 0.11 0.12 0.15 0.10 0.10
0.00 0.00 0.01 0.02 0.03 0.04 0.09 0.09 0.12 0.20 0.28 0.26 0.31 0.29 0.27 0.21 0.08 0.07 0.09 0.09 0.09 0.11

GFSNIL_prec_precacc12_135.txt.gz
Total_Precipitation_Accumulation
0.31 0.47 0.27 0.16 0.25 0.16 0.16 0.06 0.06 0.03 0.08 0.10 0.12 0.14 0.14 0.14 0.10 0.10 0.09 0.06 0.09 0.09
0.43 0.49 0.37 0.28 0.34 0.28 0.17 0.07 0.03 0.03 0.04 0.04 0.04 0.05 0.05 0.05 0.05 0.06 0.05 0.03 0.05 0.08
0.30 0.36 0.38 0.26 0.17 0.12 0.09 0.06 0.04 0.03 0.02 0.01 0.02 0.03 0.03 0.03 0.03 0.03 0.03 0.03 0.02 0.04
0.19 0.16 0.16 0.15 0.18 0.12 0.06 0.03 0.01 0.00 0.01 0.01 0.01 0.02 0.03 0.03 0.03 0.05 0.05 0.04 0.04 0.03
0.15 0.11 0.05 0.03 0.01 0.04 0.03 0.01 0.01 0.00 0.00 0.00 0.00 0.00 0.02 0.02 0.02 0.03 0.05 0.04 0.05 0.05
0.08 0.04 0.07 0.04 0.01 0.00 0.00 0.00 0.00 0.00 0.00 0.00 0.00 0.01 0.01 0.01 0.02 0.03 0.03 0.04 0.05 0.04
0.02 0.01 0.01 0.01 0.01 0.00 0.00 0.00 0.01 0.01 0.01 0.01 0.01 0.01 0.02 0.02 0.03 0.03 0.04 0.04 0.04 0.05
0.01 0.00 0.00 0.00 0.00 0.00 0.00 0.00 0.00 0.01 0.02 0.02 0.02 0.02 0.03 0.04 0.04 0.04 0.04 0.05 0.05 0.05
0.00 0.00 0.00 0.00 0.00 0.00 0.00 0.00 0.00 0.01 0.02 0.03 0.03 0.06 0.04 0.04 0.05 0.05 0.05 0.04 0.04 0.04
0.00 0.00 0.00 0.00 0.00 0.00 0.00 0.00 0.00 0.00 0.02 0.02 0.02 0.04 0.03 0.05 0.06 0.07 0.06 0.07 0.06 0.05
0.00 0.00 0.00 0.00 0.00 0.00 0.00 0.00 0.00 0.01 0.01 0.02 0.03 0.06 0.06 0.08 0.06 0.05 0.07 0.07 0.06 0.07
0.00 0.00 0.00 0.00 0.00 0.00 0.00 0.00 0.01 0.01 0.01 0.03 0.04 0.06 0.07 0.13 0.08 0.11 0.08 0.05 0.06 0.08
0.00 0.00 0.00 0.00 0.00 0.00 0.00 0.00 0.00 0.01 0.01 0.05 0.04 0.13 0.11 0.13 0.11 0.11 0.13 0.16 0.13 0.13
0.00 0.00 0.00 0.00 0.00 0.00 0.00 0.01 0.03 0.04 0.07 0.08 0.16 0.17 0.23 0.21 0.08 0.08 0.11 0.10 0.10 0.13

GFSNIL_prec_precacc12_138.txt.gz
Total_Precipitation_Accumulation
0.41 0.64 0.47 0.37 0.31 0.17 0.14 0.05 0.05 0.03 0.06 0.08 0.09 0.11 0.12 0.13 0.08 0.08 0.07 0.05 0.08 0.11
0.73 0.78 0.77 0.67 0.75 0.56 0.35 0.13 0.03 0.04 0.06 0.04 0.04 0.11 0.07 0.04 0.04 0.05 0.04 0.02 0.04 0.09
0.72 0.79 0.79 0.81 0.61 0.53 0.29 0.22 0.13 0.06 0.10 0.23 0.13 0.07 0.03 0.02 0.02 0.02 0.01 0.02 0.02 0.04
0.63 0.63 0.77 0.81 0.64 0.62 0.35 0.19 0.09 0.07 0.09 0.21 0.42 0.26 0.09 0.05 0.03 0.04 0.04 0.04 0.03 0.02
0.38 0.60 0.63 0.61 0.43 0.25 0.33 0.29 0.19 0.20 0.13 0.08 0.05 0.07 0.05 0.04 0.03 0.03 0.04 0.03 0.04 0.05
0.34 0.59 0.63 0.56 0.45 0.43 0.30 0.10 0.08 0.16 0.22 0.18 0.07 0.03 0.02 0.02 0.02 0.02 0.02 0.02 0.03 0.04
0.25 0.34 0.43 0.27 0.33 0.47 0.61 0.30 0.04 0.01 0.03 0.04 0.02 0.01 0.01 0.02 0.02 0.02 0.02 0.03 0.03 0.04
0.14 0.17 0.19 0.15 0.10 0.20 0.20 0.27 0.18 0.04 0.01 0.01 0.01 0.01 0.02 0.02 0.02 0.03 0.03 0.03 0.03 0.03
0.14 0.05 0.05 0.05 0.07 0.09 0.10 0.06 0.04 0.01 0.01 0.01 0.02 0.03 0.02 0.02 0.03 0.03 0.03 0.04 0.04 0.03
0.02 0.01 0.01 0.01 0.02 0.02 0.03 0.01 0.01 0.01 0.01 0.01 0.02 0.03 0.02 0.02 0.03 0.04 0.03 0.05 0.06 0.05
0.02 0.00 0.00 0.00 0.00 0.00 0.00 0.00 0.00 0.00 0.00 0.00 0.02 0.04 0.03 0.03 0.02 0.03 0.04 0.06 0.06 0.07
0.00 0.00 0.00 0.00 0.00 0.00 0.00 0.00 0.00 0.00 0.00 0.01 0.01 0.03 0.02 0.04 0.05 0.06 0.07 0.04 0.06 0.08
0.00 0.00 0.00 0.00 0.00 0.00 0.00 0.00 0.00 0.00 0.00 0.03 0.02 0.06 0.04 0.05 0.05 0.08 0.11 0.16 0.12 0.12
0.00 0.00 0.00 0.00 0.00 0.00 0.00 0.00 0.00 0.00 0.01 0.02 0.06 0.04 0.07 0.09 0.06 0.07 0.09 0.09 0.09 0.13

GFSNIL_prec_precacc12_141.txt.gz
Total_Precipitation_Accumulation
0.39 0.62 0.44 0.35 0.44 0.29 0.28 0.32 0.47 0.44 0.10 0.05 0.03 0.05 0.07 0.09 0.06 0.04 0.03 0.02 0.08 0.10
0.72 0.78 0.76 0.67 1.04 1.01 0.62 0.47 0.52 0.83 0.39 0.07 0.04 0.09 0.06 0.07 0.05 0.04 0.01 0.00 0.02 0.07
0.73 0.80 0.79 0.81 0.79 1.06 1.06 0.78 0.67 0.73 0.44 0.31 0.15 0.12 0.06 0.05 0.03 0.03 0.01 0.01 0.01 0.03
0.73 0.67 0.78 0.84 0.77 1.04 1.28 1.08 0.83 0.66 0.55 0.37 0.61 0.62 0.31 0.17 0.11 0.08 0.04 0.03 0.03 0.02
0.56 0.69 0.65 0.64 0.60 0.40 1.24 1.52 1.43 1.30 0.78 0.26 0.28 0.46 0.48 0.29 0.28 0.20 0.12 0.06 0.05 0.04
0.46 0.66 0.72 0.70 0.68 0.74 0.63 1.13 1.27 1.44 1.16 0.40 0.22 0.18 0.15 0.21 0.15 0.15 0.13 0.05 0.04 0.04
0.50 0.42 0.54 0.68 0.77 0.97 1.07 1.01 0.92 1.01 0.66 0.28 0.11 0.09 0.09 0.08 0.08 0.07 0.05 0.03 0.02 0.03
0.43 0.41 0.27 0.29 0.40 0.71 0.71 0.80 1.02 1.03 0.77 0.30 0.06 0.03 0.03 0.03 0.04 0.05 0.03 0.02 0.02 0.02
0.22 0.18 0.19 0.23 0.21 0.28 0.46 0.54 0.49 0.58 0.72 0.66 0.24 0.07 0.03 0.02 0.02 0.01 0.02 0.02 0.02 0.01
0.04 0.05 0.04 0.08 0.10 0.13 0.19 0.27 0.31 0.28 0.23 0.23 0.21 0.16 0.08 0.02 0.01 0.02 0.02 0.02 0.03 0.02
0.02 0.01 0.01 0.01 0.00 0.00 0.00 0.01 0.04 0.07 0.09 0.10 0.05 0.03 0.03 0.02 0.01 0.01 0.01 0.04 0.03 0.02
0.00 0.00 0.00 0.00 0.00 0.00 0.00 0.00 0.00 0.00 0.00 0.00 0.01 0.01 0.02 0.02 0.01 0.04 0.02 0.02 0.03 0.04
0.00 0.00 0.00 0.00 0.00 0.00 0.00 0.00 0.00 0.00 0.00 0.01 0.00 0.02 0.02 0.03 0.01 0.03 0.07 0.08 0.06 0.08
0.00 0.01 0.01 0.00 0.00 0.00 0.00 0.00 0.00 0.00 0.00 0.00 0.02 0.02 0.01 0.01 0.02 0.03 0.03 0.02 0.04 0.07

GFSNIL_prec_precacc12_147.txt.gz
Total_Precipitation_Accumulation
0.12 0.19 0.22 0.25 0.22 0.18 0.18 0.30 0.44 0.51 0.54 0.52 0.68 0.87 0.62 0.61 0.88 0.83 0.57 0.32 0.23 0.15
0.31 0.29 0.40 0.41 0.71 0.74 0.47 0.42 0.50 0.86 1.06 0.98 1.11 0.99 1.22 0.91 0.48 0.79 0.78 0.49 0.30 0.18
0.44 0.45 0.41 0.56 0.62 0.94 0.98 0.73 0.65 0.80 0.96 1.35 1.17 1.31 1.14 1.23 0.73 0.37 0.59 0.52 0.28 0.24
0.58 0.55 0.67 0.72 0.62 0.94 1.24 1.07 0.84 0.67 0.90 0.90 1.01 1.10 0.84 0.85 0.80 0.61 0.42 0.43 0.43 0.30
0.53 0.75 0.78 0.77 0.72 0.45 1.27 1.56 1.45 1.33 1.03 1.44 1.27 1.07 0.99 0.84 0.67 0.81 0.68 0.55 0.47 0.35
0.55 0.80 0.85 0.90 0.96 0.96 0.87 1.38 1.42 1.62 1.67 1.25 1.53 1.08 0.80 0.78 0.90 0.64 0.89 0.85 0.64 0.46
0.75 0.72 0.82 0.93 1.15 1.40 1.44 1.36 1.33 1.44 1.41 1.15 0.85 1.07 0.92 0.76 0.60 0.68 0.47 0.51 0.72 0.61
0.57 0.79 0.62 0.57 0.74 1.13 1.08 1.11 1.31 1.34 1.33 1.33 0.91 0.60 0.72 0.85 0.62 0.57 0.61 0.43 0.35 0.38
0.27 0.32 0.38 0.43 0.41 0.45 0.62 0.75 0.81 0.96 1.24 1.36 1.42 0.98 0.62 0.56 0.66 0.62 0.53 0.53 0.41 0.28
0.04 0.06 0.05 0.09 0.12 0.15 0.23 0.35 0.50 0.64 0.69 0.77 0.97 1.16 0.98 0.72 0.59 0.56 0.59 0.58 0.51 0.36
0.02 0.01 0.01 0.01 0.00 0.00 0.01 0.02 0.06 0.14 0.22 0.29 0.34 0.42 0.59 0.72 0.72 0.64 0.56 0.51 0.52 0.51
0.02 0.00 0.00 0.00 0.00 0.00 0.00 0.00 0.00 0.00 0.01 0.03 0.07 0.10 0.14 0.16 0.25 0.39 0.46 0.45 0.44 0.44
0.02 0.01 0.00 0.00 0.00 0.00 0.00 0.00 0.00 0.00 0.00 0.01 0.02 0.02 0.02 0.04 0.04 0.07 0.11 0.15 0.17 0.20
0.00 0.02 0.00 0.00 0.00 0.00 0.00 0.00 0.00 0.00 0.00 0.00 0.01 0.01 0.01 0.00 0.01 0.02 0.03 0.03 0.04 0.05